STARLINK-1894

Last updated on Tue Nov 24 2020 00:02:02 GMT+0000 (Coordinated Universal Time)

1 46744U 20074F 20328.58334491 -.00045423 00000-0 -49264-3 0 9998 2 46744 53.0548 13.3965 0001173 53.4764 20.3560 15.62773219 1808

Satellite not in orbit

STARLINK-1894